Chambery, France

12:31 AM CET on January 20, 2018 (GMT +0100)
Aix-les-Bains

Weather History for LFLB - June, 2013

Change the Weather History Date:

Thursday, June 27, 2013

  Actual Average Record
Temperature  
Mean Temperature 58 °F -  
Max Temperature 69 °F 78 °F 95 °F (2005)
Min Temperature 48 °F 57 °F 48 °F (2013)
Degree Days  
Heating Degree Days 6    
Growing Degree Days 8 (Base 50)    
Moisture  
Dew Point 47 °F    
Average Humidity 60    
Maximum Humidity 93    
Minimum Humidity 40    
Precipitation  
Precipitation 0.00 in - - ()
Sea Level Pressure  
Sea Level Pressure 30.23 in    
Wind  
Wind Speed 5 mph ()    
Max Wind Speed 18 mph    
Max Gust Speed -    
Visibility 6.1 miles    
Events Rain    
Averages and records for this station are not official NWS values.
T = Trace of Precipitation, MM = Missing Value Source: Averaged Metar Reports

Daily Weather History Graph

Daily Weather History Graph

Search for Another Location

Airport or City:

Trip Planner

Search our weather history database for the weather conditions in past years. The results will help you decide how hot, cold, wet, or windy it might be!

Date:

Astronomy

Jun. 27, 2013 Rise Set
Actual Time 5:49 AM CEST 9:29 PM CEST
Civil Twilight 5:10 AM CEST 10:07 PM CEST
Nautical Twilight 4:19 AM CEST 10:58 PM CEST
Astronomical Twilight 3:10 AM CEST 12:08 AM CEST
Moon No Moon Rise 10:47 AM CEST (6/27)
Length of Visible Light 16h 57m
Length of Day
15h 40m
Waning Gibbous, 79% of the Moon is Illuminated
Jun 27
Waning Gibbous
Jun 30
Last Quarter
Jul 8
New
Jul 16
First Quarter
Jul 22
Full

Hourly Weather History & Observations

Time (CEST) Temp. Dew Point Humidity Pressure Visibility Wind Dir Wind Speed Gust Speed Precip Events Conditions
6:00 AM 48.2 °F 46.4 °F 93% 30.27 in - South 4.6 mph - N/A   Clear
6:30 AM 48.2 °F 44.6 °F 87% 30.27 in - Variable 1.2 mph - N/A   Clear
7:00 AM 50.0 °F 46.4 °F 87% 30.27 in - Calm Calm - N/A   Clear
7:30 AM 51.8 °F 46.4 °F 82% 30.27 in - Calm Calm - N/A   Clear
8:00 AM 53.6 °F 48.2 °F 82% 30.27 in - Calm Calm - N/A   Clear
8:30 AM 55.4 °F 48.2 °F 77% 30.27 in - Calm Calm - N/A   Clear
9:00 AM 55.4 °F 48.2 °F 77% 30.27 in - North 4.6 mph - N/A   Clear
9:30 AM 57.2 °F 48.2 °F 72% 30.27 in - North 6.9 mph - N/A   Clear
10:10 AM 57.2 °F 48.2 °F 72% 30.27 in - North 8.1 mph - N/A   Clear
10:30 AM 59.0 °F 48.2 °F 67% 30.27 in - NNW 8.1 mph - N/A   Clear
11:00 AM 59.0 °F 48.2 °F 67% 30.27 in 6.2 mi North 11.5 mph - N/A   Mostly Cloudy
11:30 AM 60.8 °F 48.2 °F 63% 30.27 in 6.2 mi North 10.4 mph - N/A   Mostly Cloudy
12:00 PM 62.6 °F 48.2 °F 59% 30.27 in 6.2 mi North 6.9 mph - N/A   Mostly Cloudy
12:30 PM 62.6 °F 50.0 °F 63% 30.27 in 6.2 mi North 8.1 mph - N/A   Mostly Cloudy
1:00 PM 62.6 °F 50.0 °F 63% 30.27 in 6.2 mi North 8.1 mph - N/A   Mostly Cloudy
1:30 PM 64.4 °F 48.2 °F 56% 30.24 in 6.2 mi North 6.9 mph - N/A   Scattered Clouds
2:00 PM 66.2 °F 48.2 °F 52% 30.24 in 6.2 mi North 9.2 mph - N/A   Partly Cloudy
2:30 PM 68.0 °F 42.8 °F 40% 30.24 in 6.2 mi NNW 5.8 mph - N/A   Partly Cloudy
3:00 PM 69.8 °F 44.6 °F 40% 30.24 in 6.2 mi NNW 6.9 mph - N/A   Partly Cloudy
3:30 PM 69.8 °F 44.6 °F 40% 30.21 in 6.2 mi North 6.9 mph - N/A   Scattered Clouds
4:00 PM 69.8 °F 46.4 °F 43% 30.21 in 6.2 mi NNW 9.2 mph - N/A   Scattered Clouds
4:30 PM 68.0 °F 48.2 °F 49% 30.21 in 6.2 mi North 8.1 mph - N/A Rain Light Rain Showers
5:00 PM 68.0 °F 44.6 °F 43% 30.21 in 6.2 mi North 10.4 mph - N/A   Scattered Clouds
5:30 PM 68.0 °F 46.4 °F 46% 30.21 in 6.2 mi NW 8.1 mph - N/A   Scattered Clouds
6:00 PM 69.8 °F 46.4 °F 43% 30.18 in 6.2 mi North 6.9 mph - N/A   Scattered Clouds
6:30 PM 68.0 °F 44.6 °F 43% 30.18 in 6.2 mi NNW 6.9 mph - N/A   Unknown
7:00 PM 66.2 °F 46.4 °F 49% 30.18 in 6.2 mi North 6.9 mph - N/A   Unknown
7:30 PM 66.2 °F 46.4 °F 49% 30.18 in 6.2 mi North 8.1 mph - N/A   Scattered Clouds
8:00 PM 64.4 °F 46.4 °F 52% 30.18 in 6.2 mi NNW 6.9 mph - N/A   Mostly Cloudy
8:30 PM 62.6 °F 48.2 °F 59% 30.18 in 3.7 mi NNW 10.4 mph - N/A Rain Light Rain
9:00 PM 60.8 °F 44.6 °F 55% 30.21 in 6.2 mi North 18.4 mph - N/A Rain Light Rain
9:30 PM 60.8 °F 44.6 °F 55% 30.21 in 6.2 mi North 13.8 mph - N/A   Overcast
10:00 PM 60.8 °F 44.6 °F 55% 30.21 in 6.2 mi North 10.4 mph - N/A   Overcast
10:30 PM 59.0 °F 46.4 °F 63% 30.21 in 6.2 mi North 10.4 mph - N/A   Unknown
11:00 PM 59.0 °F 46.4 °F 63% 30.21 in 6.2 mi North 8.1 mph - N/A   Mostly Cloudy
11:30 PM 57.2 °F 44.6 °F 63% 30.21 in 6.2 mi North 6.9 mph - N/A   Unknown